Regional Weather Roundup
Issued by NWS

Home | Current Version | Previous Version | Graphics & Text | Print | Product List | Glossary On
Versions: 1 2 3 4 5 6 7 8 9 10 11 12 13 14 15 16 17 18 19 20 21 22 23 24 25 26 27 28 29 30 31 32 33 34 35 36 37 38 39 40 41 42 43 44 45 46 47 48 49 50
000
ASUS43 KLOT 270404
RWRIL

ILLINOIS REGIONAL WEATHER ROUNDUP
NATIONAL WEATHER SERVICE CHICAGO/ROMEOVILLE IL
1100 PM CDT FRI AUG 26 2016

NOTE: "FAIR" INDICATES FEW OR NO CLOUDS BELOW 12,000 FEET WITH NO
SIGNIFICANT WEATHER AND/OR OBSTRUCTIONS TO VISIBILITY.

* THESE STATIONS ARE NOT UNDER NWS QUALITY CONTROL. THEY ALSO MAY NOT
  REPORT WEATHER SUCH AS PRECIPITATION OR FOG.

ILZ001-002-007-009-015-016-024-270500-
NORTHWEST ILLINOIS

CITY           SKY/WX    TMP DP  RH WIND       PRES   REMARKS
MOLINE         LGT RAIN  70  66  87 E9        30.06S
STERLING*      LGT RAIN  70  65  84 E8        30.10S
SAVANNA*       CLOUDY    70  63  78 NE6       30.08F
$$

ILZ003-004-008-010-011-017-018-270500-
NORTH CENTRAL ILLINOIS

CITY           SKY/WX    TMP DP  RH WIND       PRES   REMARKS
ROCKFORD       CLOUDY    70  61  73 E10       30.12F
FREEPORT*      MOCLDY    65  62  91 NE6       30.13R
ROCHELLE*      MOCLDY    69  62  80 E9        30.11F
$$

ILZ005-006-012>014-019>023-270500-
NORTHEAST ILLINOIS

CITY           SKY/WX    TMP DP  RH WIND       PRES   REMARKS
CHICAGO-OHARE  CLOUDY    72  62  71 NE8       30.12S
CHICAGO-MIDWAY LGT RAIN  74  65  73 E12       30.12S
AURORA         RAIN      68  65  90 NE3       30.12F FOG
LANSING*       CLOUDY    73  68  84 NE9       30.12S
JOLIET*        DRIZZLE   71  68  92 NE3       30.12S
WAUKEGAN       CLOUDY    68  61  78 NE6       30.12F
DUPAGE AIRPORT TSTM      67  63  87 N5        30.13S FOG
KANKAKEE*      LGT RAIN  71  68  90 NE5       30.10F
WHEELING       CLOUDY    70  62  76 E6        30.13F
MORRIS*        CLOUDY    69  67  95 CALM      30.10R
ROMEOVILLE*    RAIN      68  68 100 NE7       30.12S
NORTHERLY ISL    N/A     72  64  76 NE10        N/A
$$

LMZ740>746-270500-
SOUTHERN LAKE MICHIGAN

STATION/POSITION SKY/WX   TEMP    WIND        PRES    VSBY  WAVE
                          AIR SEA DIR/SP/G                  HT/PER
                          (F)     (DEG/KT/KT) (MB)    (MI)  (FT/S)
SOUTHERN BUOY              71 75   50/ 10/ 12 1020.4          1
WILMETTE HARBOR            72 71   80/ 12/ 16   N/A           2/ 3
HARRISON CRIB              73      60/ 14/ 15   N/A
BURNHAM HARBOR             72      70/ 11/ 11   N/A
CALUMET HARBOR             72      40/  8/ 12 1019.5F
BURNS HARBOR               73      60/ 15/ 16 1020.3F
MICHIGAN CITY              72      40/ 12/ 13   N/A
MICHIGAN CITY 6N           74 75   50/ 12/ 17   N/A           3/ 3
ST. JOSEPH                 72 76   50/ 10/ 12 1020.2F         2/ 3
$$

ILZ025>027-034>036-040-047-049-050-058-095>099-270500-
WEST-CENTRAL ILLINOIS

CITY           SKY/WX    TMP DP  RH WIND       PRES   REMARKS
QUINCY         TSTM      74  72  93 VRB5G18   30.05R FOG
GALESBURG*     TSTM      71  68  92 S12G21    30.10R
MACOMB*        CLOUDY    72  70  93 N7        30.08S THUNDER
JACKSONVILLE*  CLOUDY    73  69  90 SE3       30.04S
PITTSFIELD*    CLOUDY    74  73  95 SE3       30.05S
$$

ILZ028>032-037-038-041>044-048-051>054-059>061-270500-
CENTRAL ILLINOIS

CITY           SKY/WX    TMP DP  RH WIND       PRES   REMARKS
PONTIAC        CLOUDY    73  72  99 NE3       30.10S
BLOOMINGTON    CLOUDY    71  70  96 E3        30.08F
DECATUR        CLOUDY    71  69  93 E6        30.08F
PEORIA         CLOUDY    74  73  97 CALM      30.07R
LACON*         CLOUDY    71  68  92 E10       30.07S
LINCOLN*       MOCLDY    72  72  99 SE3       30.05F
SPRINGFIELD    CLOUDY    74  70  87 SE7       30.05F
TAYLORVILLE    MOCLDY    72  71  97 SE6       30.07F
$$

ILZ033-039-045-046-055>057-062-063-270500-
EAST-CENTRAL ILLINOIS

CITY           SKY/WX    TMP DP  RH WIND       PRES   REMARKS
CHAMPAIGN      MOCLDY    71  69  93 SE6       30.09F
RANTOUL*       PTCLDY    73  72  98 CALM      30.08F
MATTOON        MOCLDY    71  69  93 CALM      30.07F
PARIS*         CLOUDY    70  70 100 CALM      30.09F
$$

ILZ079-100>102-270500-
SOUTHWEST ILLINOIS

CITY           SKY/WX    TMP DP  RH WIND       PRES   REMARKS
ALTON          CLOUDY    71  69  92 E5        30.06S
BELLEVILLE     PTCLDY    77  74  90 S5        30.03F
CAHOKIA*       CLOUDY    79  72  79 S6        30.04F HX  82
SPARTA*        MOCLDY    75  72  88 CALM      30.06F
$$

ILZ064>066-069>071-074>076-080>082-084>086-088>090-092>094-270500-
SOUTH-CENTRAL ILLINOIS

CITY           SKY/WX    TMP DP  RH WIND       PRES   REMARKS
CARBONDALE     CLOUDY    72  70  93 E5        30.06F
EFFINGHAM*     PTCLDY    73  73 100 CALM      30.08F
MARION         CLOUDY    77  73  88 SE13G21   30.12R
MT. VERNON     CLOUDY    75  70  83 E6        30.08F
CENTRALIA*     CLOUDY    76  75  96 CALM      30.06F
SALEM*         CLOUDY    76  73  90 CALM      30.07F
METROPOLIS*    RAIN      72  71  97 CALM      30.12F
$$

ILZ067-068-072-073-078-083-087-091-270500-
SOUTHEAST ILLINOIS

CITY           SKY/WX    TMP DP  RH WIND       PRES   REMARKS
LAWRENCEVILLE  CLOUDY    76  75  97 N3        30.08F
FLORA*         CLOUDY    76  75  95 CALM      30.07F
FAIRFIELD*     CLOUDY    74  74  97 CALM      30.06S
HARRISBURG*    CLOUDY    74  72  95 S15       30.13R
ROBINSON*      MOCLDY    71  71  99 CALM      30.09F
CARMI*         CLOUDY    74  74 100 CALM      30.07S
$$

ABBREVIATIONS USED IN REMARKS
   TC - TEMPERATURE IN CELSIUS
  WCI - WIND CHILL INDEX
   HX - HEAT INDEX
  VSB - VISIBILITY
$$





USA.gov is the U.S. government's official web portal to all federal, state and local government web resources and services.